Regional Weather Roundup
Issued by NWS Kansas City/Pleasant Hill, MO

Home | Current Version | Previous Version | Text Only | Print | Product List | Glossary On
Versions: 1 2 3 4 5 6 7 8 9 10 11 12 13 14 15 16 17 18 19 20 21 22 23 24 25 26 27
000
ASUS43 KEAX 310310
RWREAX

WEATHER ROUNDUP FOR EASTERN KANSAS AND NORTHWEST MISSOURI
NATIONAL WEATHER SERVICE KANSAS CITY/PLEASANT HILL MO
1000 PM CDT MON MAY 30 2016

KSZ040-057-103>105-MOZ028-029-037-043-310400-
...KANSAS CITY METROPOLITAN AREA...

CITY           SKY/WX    TMP DP  RH WIND       PRES   REMARKS
K.C. INTL      CLEAR     66  58  75 S12       29.95F
K.C. DOWNTOWN  CLEAR     70  59  68 S13       29.95F
LEES SUMMIT    CLEAR     67  60  78 S12       29.98R
OLATHE - IXD   CLEAR     66  61  84 SE8       29.98R
OLATHE - OJC   CLEAR     64  59  83 S8        29.98S
LAWRENCE       CLEAR     68  60  75 S8        29.96R

$$

MOZ001>008-011>017-020>025-030>033-038>040-044>046-053-054-310400-
...NORTHERN AND CENTRAL MISSOURI...

CITY           SKY/WX    TMP DP  RH WIND       PRES   REMARKS
ST. JOSEPH     CLEAR     70  63  78 S8        29.94S
MOSBY          CLOUDY    68  59  73 S3        29.96S
WARRENSBURG    MOCLDY    64  61  88 S8        29.98R
WHITEMAN AFB   NOT AVBL
CLINTON        CLOUDY    64  64 100 S9        29.99F
SEDALIA        CLOUDY    67  61  81 SE5       29.99R
WARSAW         NOT AVBL
CHILLICOTHE      N/A     69  62  78 SE3       29.97F
KIRKSVILLE     PTCLDY    66  61  84 S6        29.99S

$$

MOZ041-047>049-056>058-063>065-088>090-097-310400-
...EASTERN AND SOUTHERN MISSOURI...

CITY           SKY/WX    TMP DP  RH WIND       PRES   REMARKS
ST. LOUIS INTL NOT AVBL
SPIRIT OF STL  CLOUDY    69  65  86 SW7       29.99R
COLUMBIA       CLOUDY    67  61  81 SE3       30.00S
JEFFERSON CITY CLOUDY    68  62  81 E3        29.99S
ROLLA          CLOUDY    64  62  93 E6        29.99F
SPRINGFIELD    CLOUDY    66  60  81 E7        29.98F
JOPLIN         CLOUDY    66  63  90 SE8       29.98R
WEST PLAINS    MOCLDY    65  62  90 CALM      30.02F

$$

IAZ060-094-KSZ022-034>040-054-083-096-NEZ052-066-093-310400-
...KANSAS...SOUTHEAST NEBRASKA AND IOWA...

CITY           SKY/WX    TMP DP  RH WIND       PRES   REMARKS
TOPEKA         CLEAR     71  59  65 S9        29.94S
MANHATTAN      CLEAR     71  61  70 S6        29.91R
EMPORIA        CLEAR     67  61  81 SE9       29.95R
CHANUTE        CLEAR     66  62  87 E6        29.97R
WICHITA        PTCLDY    70  62  76 SE14      29.92R
OMAHA          MOCLDY    67  61  81 SE12      29.88F
LINCOLN        CLOUDY    73  63  70 SE10      29.89R
FALLS CITY     LGT RAIN  71  63  75 SE7       29.93R
LAMONI         CLOUDY    65  61  87 SW6       29.96S
DES MOINES     CLOUDY    72  55  55 S9        29.91F

$$





USA.gov is the U.S. government's official web portal to all federal, state and local government web resources and services.